Home   Weather   Breckenridge   Past weeks

Flag for USA Past Weather in Breckenridge, Colorado, USA — Yesterday and Last 2 Weeks

Now
14 °F

Mostly cloudy.


Feels Like: N/A
Forecast: -6 / 27 °F
Wind: N/A

Location: Copper Mountain - Red Cliff Pass

Current Time: Dec 8, 2016 at 3:05:43 pm

Latest Report: Dec 8, 2016 at 2:15 pm


Visibility: 4 mi

Pressure: 30.05 "Hg (20.56 "Hg at 2921m altitude)

Humidity: 67%

Dew Point: 5 °F

Location of BreckenridgeLocation

Past Weather in Breckenridge — Graph

°F

Breckenridge Temperature Yesterday

Maximum temperature yesterday: 5 °F (at 12:16 am)
Minimum temperature yesterday: -6 °F (at 9:35 pm)
Average temperature yesterday: 1 °F

High & Low Weather Summary for the Past Weeks

 TemperatureHumidityPressure
High41 °F (Nov 26, 10:55 am)80% (Nov 27, 6:54 am)30.49 "Hg (Nov 27, 6:54 am)
Low-6 °F (Dec 7, 9:35 pm)1% (Nov 26, 2:02 pm)29.32 "Hg (Nov 28, 12:49 pm)
Average15 °F58%29.88 "Hg
* Reported Nov 23 2:16 pm — Dec 8 1:55 pm, Breckenridge, Weather by CustomWeather, © 2016

Note: Actual official high and low records may vary slightly from our data, if they occured in-between our weather recording intervals... More about our weather records

Advertising

Breckenridge Weather History for the Previous 24 Hours

Scroll right to see more
 ConditionsComfort  
Time TempWeatherWind HumidityBarometerVisibility
1:55 pm
Thu, Dec 8
14 °FBroken clouds.N/A67%30.04 "Hg4 mi
1:36 pm14 °FCloudy.N/A62%30.04 "Hg5 mi
1:16 pm14 °FMore clouds than sun.N/A67%30.05 "Hg2 mi
12:48 pm14 °FOvercast.N/A62%30.05 "Hg2 mi
12:14 pm14 °FOvercast.N/A52%30.05 "HgN/A
11:56 am14 °FOvercast.N/A48%30.05 "HgN/A
11:14 am12 °FMostly cloudy.N/A48%30.07 "Hg5 mi
10:55 am12 °FOvercast.N/A44%30.08 "Hg10 mi
10:16 am12 °FOvercast.N/A34%30.08 "Hg10 mi
9:56 am12 °FOvercast.N/A28%30.08 "Hg3 mi
9:33 am10 °FMostly cloudy.N/A25%30.08 "Hg10 mi
9:08 am9 °FMostly cloudy.N/A21%30.07 "HgN/A
8:53 am5 °FOvercast.N/A27%30.07 "Hg10 mi
8:33 am9 °FOvercast.N/A17%30.06 "HgN/A
8:16 am7 °FOvercast.N/A20%30.05 "HgN/A
7:52 am7 °FPartly sunny.N/A18%30.04 "HgN/A
7:36 am7 °FPartly sunny.N/A15%30.04 "HgN/A
7:16 am5 °FOvercast.N/A22%30.03 "HgN/A
6:56 am5 °FOvercast.N/A29%30.02 "HgN/A
6:35 am5 °FOvercast.N/A24%30.02 "HgN/A
6:16 am7 °FOvercast.N/A18%30.01 "HgN/A
5:56 am7 °FOvercast.N/A17%30.01 "HgN/A
5:16 am5 °FOvercast.N/A22%29.99 "HgN/A
4:56 am5 °FOvercast.N/A22%29.99 "HgN/A
4:36 am5 °FPassing clouds.N/A24%29.99 "HgN/A
4:16 am3 °FClear.N/A26%29.99 "HgN/A
3:56 am1 °FClear.N/A32%29.98 "HgN/A
3:36 am1 °FClear.N/A35%29.99 "HgN/A
3:16 am1 °FClear.N/A42%29.99 "HgN/A
2:56 am0 °FClear.N/A45%29.99 "HgN/A
2:36 am0 °FClear.N/A54%29.99 "HgN/A
2:16 am0 °FClear.N/A60%30.00 "HgN/A
1:56 am0 °FClear.N/A65%29.99 "HgN/A
1:36 am0 °FClear.N/A65%29.99 "HgN/A
1:16 am-2 °FClear.N/A71%29.98 "HgN/A
12:56 am-4 °FClear.N/A71%29.98 "HgN/A
12:36 am-4 °FClear.N/A71%29.98 "HgN/A
12:16 am-4 °FClear.N/A65%29.98 "HgN/A
10:50 pm
Wed, Dec 7
-4 °FClear.N/A65%29.99 "HgN/A
10:16 pm-6 °FClear.N/A64%29.98 "HgN/A
9:55 pm-6 °FClear.N/A64%29.97 "HgN/A
9:35 pm-6 °FPassing clouds.N/A64%29.97 "HgN/A
8:56 pm-4 °FMostly cloudy.N/A71%29.97 "HgN/A
8:36 pm-4 °FMostly cloudy.N/A71%29.97 "HgN/A
7:36 pm-4 °FOvercast.N/A71%29.95 "HgN/A
6:36 pm0 °FMostly cloudy.N/A65%29.93 "HgN/A
6:16 pm0 °FMostly cloudy.N/A71%29.92 "HgN/A
5:56 pm0 °FOvercast.N/A71%29.91 "HgN/A
5:35 pm0 °FMostly cloudy.N/A71%29.91 "HgN/A
5:15 pm0 °FMostly cloudy.N/A71%29.90 "HgN/A
4:54 pm0 °FOvercast.N/A71%29.89 "HgN/A
3:29 pm1 °FLow clouds.N/A65%29.85 "HgN/A
Weather by CustomWeather, © 2016

See weather overviewHow to use our weather pages